Location: Newark
(33.4453°N, 112.0669°W)
Time: 12:24:44
(UTC+00:00)

Altair - All Passes

Search period start: 17 February 2020 00:00
Search period end: 27 February 2020 00:00
Orbit: 1502 x 1682 km, 47.2° (Epoch: 16 February)

Date Brightness Start Highest point End Pass type
(mag) Time Alt. Az. Time Alt. Az. Time Alt. Az.
17 Feb - 08:04:48 10° SSW 08:13:41 50° SE 08:22:54 10° ENE visible
17 Feb - 10:09:00 10° WSW 10:18:22 60° NNW 10:28:09 10° NE visible
17 Feb - 12:16:09 10° WNW 12:24:59 37° N 12:34:04 10° ENE visible
17 Feb - 14:22:27 10° NW 14:32:00 48° NNE 14:41:42 10° E daylight
17 Feb - 16:27:25 10° NW 16:37:31 76° SW 16:47:37 10° SE daylight
17 Feb - 18:34:29 10° W 18:41:15 20° SW 18:48:02 10° SSW daylight
18 Feb - 07:39:53 10° SSW 07:48:35 46° SE 07:57:36 10° ENE visible
18 Feb - 09:43:45 10° WSW 09:53:07 63° NNW 10:02:55 10° NE visible
18 Feb - 11:50:48 10° WNW 11:59:36 37° N 12:08:42 10° ENE visible
18 Feb - 13:57:13 10° NW 14:06:40 46° NNE 14:16:18 10° E daylight
18 Feb - 16:02:12 10° NW 16:12:18 82° SW 16:22:28 10° SE daylight
18 Feb - 18:08:51 10° WNW 18:16:10 23° SW 18:23:29 10° S daylight
19 Feb - 07:15:00 10° SSW 07:23:29 41° SE 07:32:16 10° ENE night (unlit)
19 Feb - 09:18:30 10° WSW 09:27:53 67° NNW 09:37:41 10° NE visible
19 Feb - 11:25:27 10° WNW 11:34:14 37° N 11:43:20 10° ENE visible
19 Feb - 13:32:00 10° NW 13:41:20 44° NNE 13:50:52 10° E visible
19 Feb - 15:37:00 10° NW 15:47:06 87° SW 15:57:18 10° SE daylight
19 Feb - 17:43:19 10° WNW 17:51:04 26° SW 17:58:52 10° S daylight
20 Feb - 06:50:09 10° SSW 06:58:25 37° SE 07:06:55 10° ENE night (unlit)
20 Feb - 08:53:17 10° WSW 09:02:39 72° NNW 09:12:28 10° NE visible
20 Feb - 11:00:05 10° WNW 11:08:53 38° N 11:17:59 10° ENE visible
20 Feb - 13:06:46 10° NW 13:15:59 42° NNE 13:25:26 10° E visible
20 Feb - 15:11:48 10° NW 15:21:53 88° NE 15:32:06 10° SE daylight
20 Feb - 17:17:50 10° WNW 17:25:58 29° SW 17:34:11 10° S daylight
21 Feb - 06:25:21 10° S 06:33:20 34° SE 06:41:33 10° ENE night (unlit)
21 Feb - 08:28:05 10° WSW 08:37:27 76° NW 08:47:14 10° NE visible
21 Feb - 10:34:44 10° WNW 10:43:32 39° NNW 10:52:39 10° NE visible
21 Feb - 12:41:31 10° NW 12:50:38 41° NNE 13:00:01 10° E visible
21 Feb - 14:46:36 10° NW 14:56:40 82° NE 15:06:52 10° SE daylight
21 Feb - 16:52:23 10° WNW 17:00:52 32° SW 17:09:24 10° S daylight
22 Feb - 06:00:36 10° S 06:08:16 30° SE 06:16:07 10° ENE night (unlit)
22 Feb - 08:02:54 10° WSW 08:12:15 81° NW 08:22:01 10° NE visible
22 Feb - 10:09:23 10° W 10:18:11 40° NNW 10:27:21 10° NE visible
22 Feb - 12:16:16 10° NW 12:25:17 39° NNE 12:34:33 10° E visible
22 Feb - 14:21:26 10° NW 14:31:26 77° NE 14:41:37 10° ESE daylight
22 Feb - 16:26:59 10° WNW 16:35:45 35° SW 16:44:36 10° S daylight
23 Feb - 05:35:54 10° S 05:43:13 27° SE 05:50:40 10° ENE night (unlit)
23 Feb - 07:37:44 10° SW 07:47:04 87° NW 07:56:48 10° NE visible
23 Feb - 09:44:02 10° W 09:52:51 41° NNW 10:02:02 10° NE visible
23 Feb - 11:51:00 10° NW 11:59:56 38° N 12:09:07 10° ENE visible
23 Feb - 13:56:14 10° NW 14:06:11 73° NNE 14:16:20 10° ESE daylight
23 Feb - 16:01:38 10° WNW 16:10:38 39° SW 16:19:44 10° SSE daylight
24 Feb - 05:11:17 10° S 05:18:10 24° SE 05:25:11 10° ENE night (unlit)
24 Feb - 07:12:36 10° SW 07:21:54 88° SE 07:31:35 10° NE night (unlit)
24 Feb - 09:18:41 10° W 09:27:32 42° NNW 09:36:45 10° NE visible
24 Feb - 11:25:44 10° WNW 11:34:35 38° N 11:43:41 10° ENE visible
24 Feb - 13:31:04 10° NW 13:40:56 68° NNE 13:51:03 10° ESE visible
24 Feb - 15:36:19 10° WNW 15:45:30 43° SW 15:54:49 10° SSE daylight
25 Feb - 04:46:44 10° S 04:53:08 21° SE 04:59:37 10° E night (unlit)
25 Feb - 06:47:29 10° SW 06:56:44 82° SE 07:06:21 10° NE night (unlit)
25 Feb - 08:53:21 10° W 09:02:13 44° NNW 09:11:28 10° NE visible
25 Feb - 11:00:28 10° WNW 11:09:13 37° N 11:18:15 10° ENE visible
25 Feb - 13:05:53 10° NW 13:15:41 64° NNE 13:25:43 10° ESE visible
25 Feb - 15:11:01 10° WNW 15:20:22 47° SW 15:29:53 10° SSE daylight
26 Feb - 04:22:17 10° SSE 04:28:05 19° SE 04:33:58 10° E night (unlit)
26 Feb - 06:22:24 10° SW 06:31:36 76° SE 06:41:08 10° NE night (unlit)
26 Feb - 08:28:01 10° W 08:36:56 46° NNW 08:46:12 10° NE visible
26 Feb - 10:35:11 10° WNW 10:43:51 36° N 10:52:49 10° ENE visible
26 Feb - 12:40:42 10° NW 12:50:25 61° NNE 13:00:23 10° ESE visible
26 Feb - 14:45:44 10° WNW 14:55:14 51° SW 15:04:54 10° SSE daylight
